Schedule Details


Flight Number: CTN490
Departure: Krk Island (LDRI) at 09:30
Arrival: Heathrow (EGLL) at 11:00
Route: NAKIT UN606 BABAG N606 BADOP P66 SOTOV UP66 KPT UL608 TEDGO UZ210 LAMGO UM150 KRH UZ210 LIRSU UL608 BUB UY28 HELEN UL179 COA L179 SASKI L608 LOGAN

Weather Information
LDRI 171230Z VRB02KT 9999 SCT053 21/11 Q1018
EGLL 171220Z AUTO VRB03KT 9999 BKN008 BKN013 OVC039 15/13 Q1019
Schedule Frequency

Route Map